User: anonymous   Login
Location: SAPM � Hemmingford
(45.0500°N, 73.5833°W)
Time: 19:46:48
(UTC-04:00)
Language:

Cosmos 1674 Rocket - Orbit

View from above orbital plane
View from above orbital plane
View from above satellite
View from above satellite

Ground track
Ground track

The orbit data is extracted from the following two-line orbital elements,

1 15945U 85069B   15085.41575178  .00000560  00000-0  64685-4 0  9993
2 15945 082.5302 175.0083 0021428 087.9532 272.4137 14.83642568600358
Epoch (UTC): 26 March 2015 09:58:40
Eccentricity: 0.0021428
inclination: 82.5302°
perigee height: 603 km
apogee height: 633 km
right ascension of ascending node: 175.0083°
argument of perigee: 87.9532°
revolutions per day: 14.83642568
mean anomaly at epoch: 272.4137°
orbit number at epoch: 60035

The dashed part of the orbit path shows where the satellite is in the earth's shadow,  

DLR